COSMOS 249 DEB

基本信息
目录编号:
14410
目录名称:
COSMOS 249 DEB
国际标识:
1968-091CL
轨道中心:
EARTH
物体状态:
在轨
发射日期:
1968-10-20 UTC
轨道信息
数据来源: 国际轨道数据
星历时间: 2026-07-13T05:46:10+0800
半长轴: 7224.619km
偏心率: 0.030092
轨道倾角: 62.199°
近地点辐角: 301.807°
升交点赤经: 155.414°
平近点角: 87.596°
近地点: 629.078km
远地点: 1063.886km
周期: 101.855分钟
每日圈数: 14.137753
详细信息
发射场:
TTMTR
轨道高度:
LEO
数据来源:
AOE Integration Group
参考系:
TEME
时间系统:
UTC
历元类型:
SGP4
2D轨道图
3D轨道图
轨道高度分析图
轨道倾角分析图
轨道综合分析图
查看轨道综合分析图